Location: Newark
(49.8969°N, 3.3422°E)
Time: 20:07:10
(UTC+00:00)

Vanguard 1 Rocket - Pass Details

Date: 20 January 2020
Orbit: 650 x 4226 km, 34.3° (Epoch: 19 February)

Event Time Altitude Azimuth Distance (km) Brightness Sun altitude
Rises 15:44:23 0° 272° (W) 6,400 12.6 3.9°
Reaches altitude 10° 15:48:30 10° 264° (W) 5,815 12.6 3.4°
Maximum altitude 16:05:24 37° 207° (SSW) 5,131 12.0 1.2°
Drops below altitude 10° 16:27:15 10° 151° (SSE) 7,351 12.0 -1.8°
Sets 16:33:30 0° 144° (SE) 8,188 12.2 -2.7°
